Time,TemperatureF,DewpointF,PressureIn,WindDirection,WindDirectionDegrees,WindSpeedMPH,WindSpeedGustMPH,Humidity,HourlyPrecipIn,Conditions,Clouds,dailyrainin,SoftwareType,DateUTC
2013-02-14 00:01:00,34.2,20.1,29.52,North,0,0.0,0.3,56,0.00,CLR,,0.00,WeatherDisplay:10.37,2013-02-14 07:01:00,
2013-02-14 08:00:00,22.6,14.6,29.67,ENE,68,0.0,0.0,71,0.00,CLR,,0.00,WeatherDisplay:10.37,2013-02-14 15:00:00,
2013-02-14 08:01:00,22.6,14.6,29.67,SE,135,0.0,0.0,71,0.00,CLR,,0.00,WeatherDisplay:10.37,2013-02-14 15:01:00,
2013-02-14 08:06:00,22.8,14.8,29.66,North,0,0.0,0.0,71,0.00,CLR,,0.00,WeatherDisplay:10.37,2013-02-14 15:06:00,
2013-02-14 08:11:00,22.8,14.8,29.66,NE,45,0.0,0.0,71,0.00,CLR,,0.00,WeatherDisplay:10.37,2013-02-14 15:11:00,
2013-02-14 08:16:00,23.2,15.2,29.66,East,90,0.0,0.0,71,0.00,CLR,,0.00,WeatherDisplay:10.37,2013-02-14 15:16:00,
2013-02-14 08:21:00,23.2,15.2,29.66,SSW,202,0.0,0.0,71,0.00,CLR,,0.00,WeatherDisplay:10.37,2013-02-14 15:21:00,
2013-02-14 08:26:00,23.2,15.2,29.66,NW,315,0.0,0.0,71,0.00,CLR,,0.00,WeatherDisplay:10.37,2013-02-14 15:26:00,
2013-02-14 08:31:00,23.2,15.2,29.66,SSE,158,2.3,2.3,71,0.00,CLR,,0.00,WeatherDisplay:10.37,2013-02-14 15:31:00,
2013-02-14 08:36:00,23.5,15.5,29.66,South,180,0.0,0.1,71,0.00,CLR,,0.00,WeatherDisplay:10.37,2013-02-14 15:36:00,
2013-02-14 08:41:00,23.5,15.5,29.66,SSW,202,0.0,0.1,71,0.00,CLR,,0.00,WeatherDisplay:10.37,2013-02-14 15:41:00,
2013-02-14 08:46:00,23.9,15.9,29.67,WSW,248,0.0,0.0,71,0.00,CLR,,0.00,WeatherDisplay:10.37,2013-02-14 15:46:00,
2013-02-14 08:51:00,23.9,15.9,29.67,South,180,0.0,0.0,71,0.00,CLR,,0.00,WeatherDisplay:10.37,2013-02-14 15:51:00,
2013-02-14 08:56:00,24.1,16.0,29.67,West,270,0.0,0.0,71,0.00,CLR,,0.00,WeatherDisplay:10.37,2013-02-14 15:56:00,
2013-02-14 09:01:00,24.3,15.9,29.67,SW,225,0.0,0.0,70,0.00,CLR,,0.00,WeatherDisplay:10.37,2013-02-14 16:01:00,
2013-02-14 09:06:00,24.6,16.2,29.67,WNW,292,0.0,0.0,70,0.00,CLR,,0.00,WeatherDisplay:10.37,2013-02-14 16:06:00,
2013-02-14 09:11:00,24.8,16.4,29.67,WNW,292,0.0,0.0,70,0.00,CLR,,0.00,WeatherDisplay:10.37,2013-02-14 16:11:00,
2013-02-14 09:16:00,25.3,16.9,29.67,SSE,158,0.0,0.0,70,0.00,CLR,,0.00,WeatherDisplay:10.37,2013-02-14 16:16:00,
2013-02-14 09:21:00,25.3,16.9,29.67,WNW,292,0.0,0.0,70,0.00,CLR,,0.00,WeatherDisplay:10.37,2013-02-14 16:21:00,
2013-02-14 09:26:00,25.5,17.1,29.69,NW,315,0.0,0.0,70,0.00,CLR,,0.00,WeatherDisplay:10.37,2013-02-14 16:26:00,
2013-02-14 09:31:00,25.7,17.3,29.69,SSE,158,1.1,1.1,70,0.00,CLR,,0.00,WeatherDisplay:10.37,2013-02-14 16:31:00,
2013-02-14 09:36:00,26.4,18.0,29.69,South,180,1.3,1.3,70,0.00,CLR,,0.00,WeatherDisplay:10.37,2013-02-14 16:36:00,
2013-02-14 09:41:00,26.2,17.4,29.69,WSW,248,0.0,0.2,69,0.00,CLR,,0.00,WeatherDisplay:10.37,2013-02-14 16:41:00,
2013-02-14 09:46:00,26.4,17.6,29.73,WNW,292,0.0,0.2,69,0.00,CLR,,0.00,WeatherDisplay:10.37,2013-02-14 16:46:00,
2013-02-14 09:51:00,26.8,18.0,29.73,SSW,202,0.0,0.0,69,0.00,CLR,,0.00,WeatherDisplay:10.37,2013-02-14 16:51:00,
2013-02-14 09:56:00,27.1,18.3,29.73,WSW,248,0.0,0.0,69,0.00,CLR,,0.00,WeatherDisplay:10.37,2013-02-14 16:56:00,
2013-02-14 10:01:00,27.1,18.3,29.73,SE,135,0.0,0.0,69,0.00,CLR,,0.00,WeatherDisplay:10.37,2013-02-14 17:01:00,
2013-02-14 10:06:00,27.3,18.1,29.75,SE,135,0.0,0.0,68,0.00,CLR,,0.00,WeatherDisplay:10.37,2013-02-14 17:06:00,
2013-02-14 10:11:00,27.5,18.3,29.75,SSE,158,0.0,0.0,68,0.00,CLR,,0.00,WeatherDisplay:10.37,2013-02-14 17:11:00,
2013-02-14 10:16:00,27.3,18.1,29.75,SSW,202,0.0,0.0,68,0.00,CLR,,0.00,WeatherDisplay:10.37,2013-02-14 17:16:00,
2013-02-14 10:21:00,27.5,18.3,29.75,WSW,248,0.0,0.2,68,0.00,CLR,,0.00,WeatherDisplay:10.37,2013-02-14 17:21:00,
2013-02-14 10:26:00,27.7,18.5,29.73,SSW,202,0.0,0.2,68,0.00,CLR,,0.00,WeatherDisplay:10.37,2013-02-14 17:26:00,
2013-02-14 10:31:00,27.9,18.7,29.73,SSW,202,0.0,0.1,68,0.00,CLR,,0.00,WeatherDisplay:10.37,2013-02-14 17:31:00,
2013-02-14 10:36:00,28.2,19.0,29.73,SSE,158,0.0,0.1,68,0.00,CLR,,0.00,WeatherDisplay:10.37,2013-02-14 17:36:00,
2013-02-14 10:41:00,28.6,19.4,29.73,SSW,202,0.0,0.1,68,0.00,CLR,,0.00,WeatherDisplay:10.37,2013-02-14 17:41:00,
2013-02-14 10:46:00,28.4,19.2,29.74,SSW,202,0.0,0.0,68,0.00,CLR,,0.00,WeatherDisplay:10.37,2013-02-14 17:46:00,
2013-02-14 10:51:00,28.6,19.4,29.74,WSW,248,0.0,0.0,68,0.00,CLR,,0.00,WeatherDisplay:10.37,2013-02-14 17:51:00,
2013-02-14 10:56:00,28.9,19.7,29.74,SSW,202,1.1,1.1,68,0.00,CLR,,0.00,WeatherDisplay:10.37,2013-02-14 17:56:00,
2013-02-14 11:01:00,28.6,19.0,29.74,SW,225,0.0,0.1,67,0.00,CLR,,0.00,WeatherDisplay:10.37,2013-02-14 18:01:00,
2013-02-14 11:06:00,28.6,19.0,29.73,SW,225,0.0,0.0,67,0.00,CLR,,0.00,WeatherDisplay:10.37,2013-02-14 18:06:00,
2013-02-14 11:11:00,28.4,18.8,29.73,WSW,248,0.0,0.0,67,0.00,CLR,,0.00,WeatherDisplay:10.37,2013-02-14 18:11:00,
2013-02-14 11:16:00,28.9,19.3,29.73,SW,225,0.0,0.0,67,0.00,CLR,,0.00,WeatherDisplay:10.37,2013-02-14 18:16:00,
2013-02-14 11:21:00,28.9,19.3,29.73,SW,225,0.0,0.0,67,0.00,CLR,,0.00,WeatherDisplay:10.37,2013-02-14 18:21:00,
2013-02-14 11:26:00,28.9,19.3,29.74,SSW,202,0.0,0.0,67,0.00,CLR,,0.00,WeatherDisplay:10.37,2013-02-14 18:26:00,
2013-02-14 11:31:00,29.1,19.5,29.74,SW,225,0.0,0.0,67,0.00,CLR,,0.00,WeatherDisplay:10.37,2013-02-14 18:31:00,
2013-02-14 11:36:00,29.1,19.5,29.74,SW,225,1.1,0.0,67,0.00,CLR,,0.00,WeatherDisplay:10.37,2013-02-14 18:36:00,
2013-02-14 11:41:00,28.9,19.3,29.74,WSW,248,0.0,0.0,67,0.00,CLR,,0.00,WeatherDisplay:10.37,2013-02-14 18:41:00,
2013-02-14 11:46:00,29.3,19.7,29.70,SSW,202,0.0,0.0,67,0.00,CLR,,0.00,WeatherDisplay:10.37,2013-02-14 18:46:00,
2013-02-14 11:51:00,29.3,19.7,29.70,WSW,248,0.0,0.0,67,0.00,CLR,,0.00,WeatherDisplay:10.37,2013-02-14 18:51:00,
2013-02-14 11:56:00,29.3,19.7,29.70,NW,315,0.0,0.1,67,0.00,CLR,,0.00,WeatherDisplay:10.37,2013-02-14 18:56:00,
2013-02-14 12:01:00,29.7,20.0,29.70,SW,225,0.0,0.1,67,0.00,CLR,,0.00,WeatherDisplay:10.37,2013-02-14 19:01:00,
2013-02-14 12:06:00,30.0,20.4,29.73,SSW,202,0.0,0.1,67,0.00,CLR,,0.00,WeatherDisplay:10.37,2013-02-14 19:06:00,
2013-02-14 12:11:00,30.0,20.4,29.73,SSW,202,0.0,0.1,67,0.00,CLR,,0.00,WeatherDisplay:10.37,2013-02-14 19:11:00,
2013-02-14 12:16:00,30.4,20.7,29.73,North,0,0.0,0.0,67,0.00,CLR,,0.00,WeatherDisplay:10.37,2013-02-14 19:16:00,
2013-02-14 12:21:00,30.7,21.1,29.73,South,180,2.3,2.3,67,0.00,CLR,,0.00,WeatherDisplay:10.37,2013-02-14 19:21:00,
2013-02-14 12:26:00,30.6,20.9,29.73,WNW,292,0.0,0.5,67,0.00,CLR,,0.00,WeatherDisplay:10.37,2013-02-14 19:26:00,
2013-02-14 12:31:00,31.1,21.4,29.73,SSW,202,1.1,1.1,67,0.00,CLR,,0.00,WeatherDisplay:10.37,2013-02-14 19:31:00,
2013-02-14 12:36:00,31.3,21.6,29.73,NNW,338,0.0,0.2,67,0.00,CLR,,0.00,WeatherDisplay:10.37,2013-02-14 19:36:00,
2013-02-14 12:41:00,31.8,22.1,29.73,SW,225,0.0,0.0,67,0.00,CLR,,0.00,WeatherDisplay:10.37,2013-02-14 19:41:00,
2013-02-14 12:46:00,32.2,22.4,29.73,WNW,292,0.0,0.1,67,0.00,CLR,,0.00,WeatherDisplay:10.37,2013-02-14 19:46:00,
2013-02-14 12:51:00,32.5,22.8,29.73,NNW,338,0.0,0.1,67,0.00,CLR,,0.00,WeatherDisplay:10.37,2013-02-14 19:51:00,
2013-02-14 12:56:00,32.9,23.1,29.73,SSW,202,0.0,0.0,67,0.00,CLR,,0.00,WeatherDisplay:10.37,2013-02-14 19:56:00,
2013-02-14 13:01:00,33.3,23.1,29.73,WNW,292,0.0,0.0,66,0.00,CLR,,0.00,WeatherDisplay:10.37,2013-02-14 20:01:00,
2013-02-14 13:06:00,33.3,23.1,29.72,South,180,0.0,0.0,66,0.00,CLR,,0.00,WeatherDisplay:10.37,2013-02-14 20:06:00,
2013-02-14 13:11:00,33.1,22.9,29.72,SSE,158,0.0,0.2,66,0.00,CLR,,0.00,WeatherDisplay:10.37,2013-02-14 20:11:00,
2013-02-14 13:16:00,33.4,23.3,29.72,SSW,202,0.0,0.2,66,0.00,CLR,,0.00,WeatherDisplay:10.37,2013-02-14 20:16:00,
2013-02-14 13:21:00,33.8,23.6,29.72,WSW,248,0.0,0.0,66,0.00,CLR,,0.00,WeatherDisplay:10.37,2013-02-14 20:21:00,
2013-02-14 13:26:00,34.0,23.8,29.72,SW,225,0.0,0.0,66,0.00,CLR,,0.00,WeatherDisplay:10.37,2013-02-14 20:26:00,
2013-02-14 13:31:00,33.8,23.6,29.72,WSW,248,0.0,0.0,66,0.00,CLR,,0.00,WeatherDisplay:10.37,2013-02-14 20:31:00,
2013-02-14 13:36:00,34.3,24.2,29.72,West,270,0.0,0.1,66,0.00,CLR,,0.00,WeatherDisplay:10.37,2013-02-14 20:36:00,
2013-02-14 13:41:00,34.3,24.2,29.72,ENE,68,0.0,0.1,66,0.00,CLR,,0.00,WeatherDisplay:10.37,2013-02-14 20:41:00,
2013-02-14 13:46:00,34.9,24.7,29.71,ENE,68,0.0,0.0,66,0.00,CLR,,0.00,WeatherDisplay:10.37,2013-02-14 20:46:00,
2013-02-14 13:51:00,34.9,24.7,29.71,SE,135,0.0,0.0,66,0.00,CLR,,0.00,WeatherDisplay:10.37,2013-02-14 20:51:00,
2013-02-14 13:56:00,34.9,24.3,29.71,SSE,158,1.1,1.1,65,0.00,CLR,,0.00,WeatherDisplay:10.37,2013-02-14 20:56:00,
2013-02-14 14:01:00,35.1,24.8,29.71,West,270,0.0,0.1,66,0.00,CLR,,0.00,WeatherDisplay:10.37,2013-02-14 21:01:00,
2013-02-14 14:06:00,35.6,25.0,29.71,ENE,68,0.0,0.0,65,0.00,CLR,,0.00,WeatherDisplay:10.37,2013-02-14 21:06:00,
2013-02-14 14:11:00,35.8,25.5,29.71,NW,315,0.0,0.0,66,0.00,CLR,,0.00,WeatherDisplay:10.37,2013-02-14 21:11:00,
2013-02-14 14:16:00,36.1,25.5,29.71,NW,315,2.3,2.3,65,0.00,CLR,,0.00,WeatherDisplay:10.37,2013-02-14 21:16:00,
2013-02-14 14:21:00,36.5,25.8,29.71,North,0,0.0,0.3,65,0.00,CLR,,0.00,WeatherDisplay:10.37,2013-02-14 21:21:00,
2013-02-14 14:26:00,36.3,25.7,29.69,NNE,22,0.0,0.0,65,0.00,CLR,,0.00,WeatherDisplay:10.37,2013-02-14 21:26:00,
2013-02-14 14:31:00,36.5,25.5,29.69,NNW,338,0.0,0.3,64,0.00,CLR,,0.00,WeatherDisplay:10.37,2013-02-14 21:31:00,
2013-02-14 14:36:00,36.3,24.1,29.69,ENE,68,4.6,4.6,61,0.00,CLR,,0.00,WeatherDisplay:10.37,2013-02-14 21:36:00,
2013-02-14 14:41:00,36.3,24.1,29.69,NNE,22,2.3,2.6,61,0.00,CLR,,0.00,WeatherDisplay:10.37,2013-02-14 21:41:00,
2013-02-14 14:46:00,36.5,24.3,29.67,SW,225,3.5,3.5,61,0.00,CLR,,0.00,WeatherDisplay:10.37,2013-02-14 21:46:00,
2013-02-14 14:51:00,36.5,24.3,29.67,ENE,68,5.8,5.8,61,0.00,CLR,,0.00,WeatherDisplay:10.37,2013-02-14 21:51:00,
2013-02-14 14:56:00,36.9,24.7,29.67,ENE,68,0.0,1.4,61,0.00,CLR,,0.00,WeatherDisplay:10.37,2013-02-14 21:56:00,
2013-02-14 15:01:00,37.0,24.0,29.67,SE,135,3.7,3.7,59,0.00,CLR,,0.00,WeatherDisplay:10.37,2013-02-14 22:01:00,
2013-02-14 15:06:00,37.2,24.2,29.67,NNW,338,2.3,2.3,59,0.00,CLR,,0.00,WeatherDisplay:10.37,2013-02-14 22:06:00,
2013-02-14 15:11:00,37.2,23.8,29.67,ESE,112,2.3,2.3,58,0.00,CLR,,0.00,WeatherDisplay:10.37,2013-02-14 22:11:00,
2013-02-14 15:16:00,37.4,24.0,29.67,NW,315,2.3,2.3,58,0.00,CLR,,0.00,WeatherDisplay:10.37,2013-02-14 22:16:00,
2013-02-14 15:21:00,37.6,24.5,29.67,NNE,22,3.5,3.5,59,0.00,CLR,,0.00,WeatherDisplay:10.37,2013-02-14 22:21:00,
2013-02-14 15:26:00,37.6,24.5,29.68,East,90,3.5,3.5,59,0.00,CLR,,0.00,WeatherDisplay:10.37,2013-02-14 22:26:00,
2013-02-14 15:31:00,37.6,24.1,29.68,ENE,68,5.8,5.8,58,0.00,CLR,,0.00,WeatherDisplay:10.37,2013-02-14 22:31:00,
2013-02-14 15:36:00,37.6,23.7,29.68,South,180,2.4,2.4,57,0.00,CLR,,0.00,WeatherDisplay:10.37,2013-02-14 22:36:00,
2013-02-14 15:41:00,37.6,23.3,29.68,South,180,3.5,3.5,56,0.00,CLR,,0.00,WeatherDisplay:10.37,2013-02-14 22:41:00,
2013-02-14 15:46:00,37.6,23.7,29.65,NNW,338,4.6,4.6,57,0.00,CLR,,0.00,WeatherDisplay:10.37,2013-02-14 22:46:00,
2013-02-14 15:51:00,37.8,23.9,29.65,SSW,202,4.9,4.9,57,0.00,CLR,,0.00,WeatherDisplay:10.37,2013-02-14 22:51:00,
2013-02-14 15:56:00,37.8,23.5,29.65,ESE,112,3.5,3.5,56,0.00,CLR,,0.00,WeatherDisplay:10.37,2013-02-14 22:56:00,
2013-02-14 16:01:00,37.8,23.9,29.65,NE,45,4.6,4.6,57,0.00,CLR,,0.00,WeatherDisplay:10.37,2013-02-14 23:01:00,
2013-02-14 16:06:00,37.9,24.0,29.65,ESE,112,2.3,2.3,57,0.00,CLR,,0.00,WeatherDisplay:10.37,2013-02-14 23:06:00,
2013-02-14 16:11:00,37.9,24.0,29.65,East,90,3.5,3.5,57,0.00,CLR,,0.00,WeatherDisplay:10.37,2013-02-14 23:11:00,
2013-02-14 16:16:00,37.9,23.2,29.65,South,180,5.1,5.1,55,0.00,CLR,,0.00,WeatherDisplay:10.37,2013-02-14 23:16:00,
2013-02-14 16:21:00,37.9,22.8,29.65,WSW,248,2.3,3.2,54,0.00,CLR,,0.00,WeatherDisplay:10.37,2013-02-14 23:21:00,
2013-02-14 16:26:00,37.9,22.8,29.69,SSE,158,6.9,6.9,54,0.00,CLR,,0.00,WeatherDisplay:10.37,2013-02-14 23:26:00,
2013-02-14 16:31:00,38.1,22.5,29.69,WSW,248,4.6,4.6,53,0.00,CLR,,0.00,WeatherDisplay:10.37,2013-02-14 23:31:00,
2013-02-14 16:36:00,38.3,23.1,29.69,ENE,68,8.1,8.1,54,0.00,CLR,,0.00,WeatherDisplay:10.37,2013-02-14 23:36:00,
2013-02-14 16:41:00,38.3,22.6,29.69,ENE,68,5.8,5.8,53,0.00,CLR,,0.00,WeatherDisplay:10.37,2013-02-14 23:41:00,
2013-02-14 16:46:00,38.3,22.6,29.72,South,180,6.9,6.9,53,0.00,CLR,,0.00,WeatherDisplay:10.37,2013-02-14 23:46:00,
2013-02-14 16:51:00,37.9,22.8,29.72,WSW,248,0.0,2.2,54,0.00,CLR,,0.00,WeatherDisplay:10.37,2013-02-14 23:51:00,
2013-02-14 16:56:00,37.9,22.8,29.72,SE,135,2.3,2.3,54,0.00,CLR,,0.00,WeatherDisplay:10.37,2013-02-14 23:56:00,
2013-02-14 17:01:00,37.9,22.8,29.72,NE,45,0.0,0.2,54,0.00,CLR,,0.00,WeatherDisplay:10.37,2013-02-15 00:01:00,
2013-02-14 17:06:00,37.6,22.4,29.67,SW,225,1.3,1.3,54,0.00,CLR,,0.00,WeatherDisplay:10.37,2013-02-15 00:06:00,
2013-02-14 17:11:00,37.2,22.1,29.67,East,90,7.1,7.1,54,0.00,CLR,,0.00,WeatherDisplay:10.37,2013-02-15 00:11:00,
2013-02-14 17:16:00,36.9,21.3,29.67,SSW,202,2.3,2.3,53,0.00,CLR,,0.00,WeatherDisplay:10.37,2013-02-15 00:16:00,
2013-02-14 17:21:00,36.5,21.4,29.67,NE,45,2.3,2.3,54,0.00,CLR,,0.00,WeatherDisplay:10.37,2013-02-15 00:21:00,
2013-02-14 17:26:00,36.1,21.5,29.67,SSW,202,1.1,1.1,55,0.00,CLR,,0.00,WeatherDisplay:10.37,2013-02-15 00:26:00,
2013-02-14 17:31:00,36.1,21.5,29.67,WNW,292,0.0,0.3,55,0.00,CLR,,0.00,WeatherDisplay:10.37,2013-02-15 00:31:00,
2013-02-14 17:36:00,35.6,21.4,29.67,ENE,68,2.3,2.3,56,0.00,CLR,,0.00,WeatherDisplay:10.37,2013-02-15 00:36:00,
2013-02-14 17:41:00,35.6,21.4,29.67,NW,315,0.0,0.3,56,0.00,CLR,,0.00,WeatherDisplay:10.37,2013-02-15 00:41:00,
2013-02-14 17:46:00,35.4,21.3,29.65,NNW,338,0.0,0.1,56,0.00,CLR,,0.00,WeatherDisplay:10.37,2013-02-15 00:46:00,
2013-02-14 17:51:00,35.1,21.3,29.65,North,0,0.0,0.0,57,0.00,CLR,,0.00,WeatherDisplay:10.37,2013-02-15 00:51:00,
2013-02-14 17:56:00,34.7,21.0,29.65,NNE,22,0.0,0.0,57,0.00,CLR,,0.00,WeatherDisplay:10.37,2013-02-15 00:56:00,
2013-02-14 18:01:00,34.3,20.7,29.65,SSE,158,1.5,1.5,57,0.00,CLR,,0.00,WeatherDisplay:10.37,2013-02-15 01:01:00,
2013-02-14 18:06:00,34.2,20.5,29.65,NNE,22,2.3,2.3,57,0.00,CLR,,0.00,WeatherDisplay:10.37,2013-02-15 01:06:00,
2013-02-14 18:11:00,33.8,20.2,29.65,ESE,112,0.0,0.2,57,0.00,CLR,,0.00,WeatherDisplay:10.37,2013-02-15 01:11:00,
2013-02-14 18:16:00,33.8,20.2,29.65,NE,45,0.0,0.0,57,0.00,CLR,,0.00,WeatherDisplay:10.37,2013-02-15 01:16:00,
2013-02-14 18:21:00,33.6,20.4,29.65,NE,45,0.0,0.0,58,0.00,CLR,,0.00,WeatherDisplay:10.37,2013-02-15 01:21:00,
2013-02-14 18:26:00,33.3,20.1,29.64,NE,45,2.3,2.3,58,0.00,CLR,,0.00,WeatherDisplay:10.37,2013-02-15 01:26:00,
2013-02-14 18:31:00,33.3,20.5,29.64,SSW,202,0.0,0.1,59,0.00,CLR,,0.00,WeatherDisplay:10.37,2013-02-15 01:31:00,
2013-02-14 18:36:00,32.9,20.1,29.64,NE,45,0.0,0.1,59,0.00,CLR,,0.00,WeatherDisplay:10.37,2013-02-15 01:36:00,
2013-02-14 18:41:00,32.7,20.0,29.64,NNW,338,0.0,0.0,59,0.00,CLR,,0.00,WeatherDisplay:10.37,2013-02-15 01:41:00,
2013-02-14 18:46:00,32.7,20.0,29.64,NNW,338,0.0,0.0,59,0.00,CLR,,0.00,WeatherDisplay:10.37,2013-02-15 01:46:00,
2013-02-14 18:51:00,32.5,19.8,29.64,NW,315,0.0,0.0,59,0.00,CLR,,0.00,WeatherDisplay:10.37,2013-02-15 01:51:00,
2013-02-14 18:56:00,32.5,19.8,29.64,North,0,0.0,0.0,59,0.00,CLR,,0.00,WeatherDisplay:10.37,2013-02-15 01:56:00,
2013-02-14 19:01:00,32.4,20.0,29.64,South,180,2.3,2.3,60,0.00,CLR,,0.00,WeatherDisplay:10.37,2013-02-15 02:01:00,
2013-02-14 19:06:00,32.4,20.0,29.65,SSW,202,1.1,1.1,60,0.00,CLR,,0.00,WeatherDisplay:10.37,2013-02-15 02:06:00,
2013-02-14 19:11:00,32.5,19.8,29.65,SSW,202,0.0,0.8,59,0.00,CLR,,0.00,WeatherDisplay:10.37,2013-02-15 02:11:00,
2013-02-14 19:16:00,32.5,20.2,29.65,NW,315,0.0,0.0,60,0.00,CLR,,0.00,WeatherDisplay:10.37,2013-02-15 02:16:00,
2013-02-14 19:21:00,32.5,20.2,29.65,North,0,0.0,0.1,60,0.00,CLR,,0.00,WeatherDisplay:10.37,2013-02-15 02:21:00,
2013-02-14 19:26:00,32.5,20.2,29.64,North,0,0.0,0.1,60,0.00,CLR,,0.00,WeatherDisplay:10.37,2013-02-15 02:26:00,
2013-02-14 19:31:00,32.5,20.2,29.64,SSE,158,0.0,0.1,60,0.00,CLR,,0.00,WeatherDisplay:10.37,2013-02-15 02:31:00,
2013-02-14 19:36:00,32.5,20.2,29.64,ESE,112,0.0,0.1,60,0.00,CLR,,0.00,WeatherDisplay:10.37,2013-02-15 02:36:00,
2013-02-14 19:41:00,32.5,20.2,29.64,West,270,0.0,0.3,60,0.00,CLR,,0.00,WeatherDisplay:10.37,2013-02-15 02:41:00,
2013-02-14 19:46:00,32.7,20.4,29.64,NE,45,2.3,2.3,60,0.00,CLR,,0.00,WeatherDisplay:10.37,2013-02-15 02:46:00,
2013-02-14 19:51:00,32.7,20.4,29.64,NE,45,0.0,0.2,60,0.00,CLR,,0.00,WeatherDisplay:10.37,2013-02-15 02:51:00,
2013-02-14 19:56:00,32.9,20.5,29.64,NW,315,1.1,1.1,60,0.00,CLR,,0.00,WeatherDisplay:10.37,2013-02-15 02:56:00,
2013-02-14 20:01:00,33.3,20.9,29.64,ENE,68,1.4,1.4,60,0.00,CLR,,0.00,WeatherDisplay:10.37,2013-02-15 03:01:00,
2013-02-14 20:06:00,33.3,20.9,29.64,South,180,2.3,2.3,60,0.00,CLR,,0.00,WeatherDisplay:10.37,2013-02-15 03:06:00,
2013-02-14 20:11:00,33.4,20.6,29.64,South,180,3.7,3.7,59,0.00,CLR,,0.00,WeatherDisplay:10.37,2013-02-15 03:11:00,
2013-02-14 20:16:00,33.4,20.6,29.64,SE,135,11.5,11.5,59,0.00,CLR,,0.00,WeatherDisplay:10.37,2013-02-15 03:16:00,
2013-02-14 20:21:00,33.6,20.8,29.64,SE,135,4.6,4.6,59,0.00,CLR,,0.00,WeatherDisplay:10.37,2013-02-15 03:21:00,
2013-02-14 20:26:00,33.6,20.8,29.65,NE,45,0.0,1.0,59,0.00,CLR,,0.00,WeatherDisplay:10.37,2013-02-15 03:26:00,
2013-02-14 20:31:00,33.6,20.8,29.65,NE,45,2.3,2.3,59,0.00,CLR,,0.00,WeatherDisplay:10.37,2013-02-15 03:31:00,
2013-02-14 20:36:00,34.0,21.5,29.65,WNW,292,8.1,8.1,60,0.00,CLR,,0.00,WeatherDisplay:10.37,2013-02-15 03:36:00,
2013-02-14 20:41:00,34.0,21.1,29.65,NW,315,0.0,1.4,59,0.00,CLR,,0.00,WeatherDisplay:10.37,2013-02-15 03:41:00,
2013-02-14 20:46:00,33.8,21.0,29.64,South,180,6.9,6.9,59,0.00,CLR,,0.00,WeatherDisplay:10.37,2013-02-15 03:46:00,
2013-02-14 20:51:00,34.0,21.1,29.64,SSE,158,0.0,1.0,59,0.00,CLR,,0.00,WeatherDisplay:10.37,2013-02-15 03:51:00,
2013-02-14 20:56:00,34.0,21.5,29.64,SE,135,4.7,4.7,60,0.00,CLR,,0.00,WeatherDisplay:10.37,2013-02-15 03:56:00,
2013-02-14 21:01:00,33.8,21.4,29.64,SW,225,4.6,4.6,60,0.00,CLR,,0.00,WeatherDisplay:10.37,2013-02-15 04:01:00,
2013-02-14 21:06:00,34.0,21.5,29.65,SW,225,1.1,1.3,60,0.00,CLR,,0.00,WeatherDisplay:10.37,2013-02-15 04:06:00,
2013-02-14 21:11:00,34.0,21.5,29.65,SSE,158,0.0,0.7,60,0.00,CLR,,0.00,WeatherDisplay:10.37,2013-02-15 04:11:00,
2013-02-14 21:16:00,33.8,21.4,29.65,West,270,2.3,2.3,60,0.00,CLR,,0.00,WeatherDisplay:10.37,2013-02-15 04:16:00,
2013-02-14 21:21:00,34.0,21.5,29.65,ESE,112,0.0,0.9,60,0.00,CLR,,0.00,WeatherDisplay:10.37,2013-02-15 04:21:00,
2013-02-14 21:26:00,33.8,21.4,29.66,East,90,4.6,4.6,60,0.00,CLR,,0.00,WeatherDisplay:10.37,2013-02-15 04:26:00,
2013-02-14 21:32:00,34.0,21.5,29.66,West,270,5.8,5.8,60,0.00,CLR,,0.00,WeatherDisplay:10.37,2013-02-15 04:32:00,
2013-02-14 21:37:00,34.0,21.5,29.66,South,180,3.5,3.5,60,0.00,CLR,,0.00,WeatherDisplay:10.37,2013-02-15 04:37:00,
2013-02-14 21:42:00,34.0,21.5,29.66,North,0,2.3,2.3,60,0.00,CLR,,0.00,WeatherDisplay:10.37,2013-02-15 04:42:00,
2013-02-14 23:55:00,34.0,21.5,29.70,North,0,2.3,2.3,60,0.00,CLR,,0.00,WeatherDisplay:10.37,2013-02-15 06:55:00,
2013-02-14 23:56:00,34.0,21.5,29.70,North,0,2.3,2.3,60,0.00,CLR,,0.00,WeatherDisplay:10.37,2013-02-15 06:56:00,
2013-02-14 23:57:00,34.0,21.5,29.70,SSE,158,5.8,5.8,60,0.00,CLR,,0.00,WeatherDisplay:10.37,2013-02-15 06:57:00,